Skip Page Navigation
NASA JPL Caltech
NASA Logo - Jet Propulsion Laboratory + View the NASA Portal
+ Center for Near-Earth Object Studies
JPL Home Earth Solar System Stars & Galaxies Technology
JPL Solar System Dynamics
BODIES ORBITS EPHEMERIDES TOOLS PHYSICAL DATA DISCOVERY FAQ SITE MAP
IMPORTANT: The SSD Announcement email list is now available. Major changes are coming in the near future, including possible hostname and/or URL changes. To be notified of such changes, subscribe to this email list.

Please visit this page for more details.


JPL Small-Body Database Browser
Search: [ help ]  
26019 (2768 P-L)
Classification: Main-belt Asteroid          SPK-ID: 2026019
Ephemeris | Orbit Diagram | Orbital Elements | Mission Design | Physical Parameters | Discovery Circumstances ]

[ show orbit diagram ]
Orbital Elements at Epoch 2459000.5 (2020-May-31.0) TDB
Reference: JPL 23 (heliocentric ecliptic J2000)
 Element Value Uncertainty (1-sigma)   Units 
e .1233732923474226 4.303e-08  
a 2.612499512105964 1.1417e-08 au
q 2.290186846041416 1.1083e-07 au
i 2.777494431198025 3.8633e-06 deg
node 126.3035309174893 0.00011072 deg
peri 112.4542042884719 0.0001123 deg
M 163.6132014438102 1.9982e-05 deg
tp 2458299.531348932673
(2018-Jun-30.03134893)
8.5345e-05 TDB
period 1542.349346858187
4.22
1.0111e-05
2.768e-08
d
yr
n .2334101549258804 1.5301e-09 deg/d
Q 2.934812178170512 1.2826e-08 au
  Orbit Determination Parameters
   # obs. used (total)      1135  
   data-arc span      21666 days (59.32 yr)  
   first obs. used      1960-09-24  
   last obs. used      2020-01-19  
   planetary ephem.      DE431  
   SB-pert. ephem.      SB431-N16  
   condition code      0  
   norm. resid. RMS      .53684  
   source      ORB  
   producer      Otto Matic  
   solution date      2020-Feb-23 00:37:07  

Additional Information
 Earth MOID = 1.27971 au 
 Jupiter MOID = 2.06877 au 
 T_jup = 3.396 
[ show covariance matrix ]

Ephemeris | Orbit Diagram | Orbital Elements | Mission Design | Physical Parameters | Discovery Circumstances ]

Physical Parameter Table
Parameter Symbol Value Units Sigma Reference Notes
absolute magnitude H 14.9   n/a MPO351005  
diameter diameter 5.552 km 0.177 urn:nasa:pds:neowise_diameters_albedos::2.0[mainbelt] (http://adsabs.harvard.edu/abs/2011ApJ...741...68M)  
geometric albedo albedo 0.057   0.011 urn:nasa:pds:neowise_diameters_albedos::2.0[mainbelt] (http://adsabs.harvard.edu/abs/2011ApJ...741...68M)  

26019 (2768 P-L)          Discovered 1960-Sep-24 by van Houten, C. J., van Houten-Groeneveld, I., Gehrels, T. at Palomar
Reference: 20010606/Numbers.arcLast Updated: 2004-04-19

Alternate Designations
 2768 P-L = 1997 LT17 = 3188 T-3 
Ephemeris | Orbit Diagram | Orbital Elements | Mission Design | Physical Parameters | Discovery Circumstances ]
ABOUT SSD CREDITS/AWARDS PRIVACY/COPYRIGHT GLOSSARY LINKS
FirstGov 2020-May-25 06:24 UT
(server date/time)  
NASA Home Page
Site Manager:   Ryan S. Park
Webmaster  Alan B. Chamberlin